Showing default

ICEYE-X60, 66753

Orbit data source: Space-Track

ICEYE-X60, 66753 is a Greek payload satellite in SSO that was launched on Fri, 28 Nov 2025 UTC via an FALCON 9 launch vehicle from the Air Force Western Test Range (AFWTR). Payload-class satellites include a variety of spacecraft equipped with specific instruments for various scientific and technological missions. These include communications satellites like Starlink; space stations such as the ISS; scientific satellites like the Hubble; Earth observation satellites from companies like Planet Labs, Umbra, and HawkEye 360; GPS; miniature CubeSats for education and research; and military/defense satellites.

Loading next visibility...
Identifier
66753, 2025-276CR
Orbit
SSO
Country
Flag of GRGR / GREC
Related business
Manufacturer
ICEYE
Mission
Operational Commercial Radar Imaging
Bus & Motor
ICEYE, Unknown motor
Mass
120 kg wet, 120 kg dry
Launch date (UTC)
2025-11-28 (9 months ago)
Launch vehicle
FALCON 9
Launch site
Air Force Western Test Range (AFWTR)
Object type
Payload
Rocket body
Debris
Shape & HBR
Box + 1 Pan, 2.4 m
Radar Cross Section
0.776 m², Large (>1 m²)

Expand to show TLE details & history
Last TLE update: 3 days ago

TLE from 3 days ago
0 ICEYE-X60
1 66753U 25276CR  26235.40443308  .00003994  00000-0  24718-3 0  9993
2 66753  97.4153 306.0556 0003359 129.0609 231.0920 15.10352750 40516
Epoch: 2026-08-23T09:42Z
TLE epoch observation values (Epoch: 2026-08-23T09:42:23.018Z)
Latitude
-0.00002°
Longitude
-171.24128°
Altitude
539.66 km
Speed
7.592 km/s
True Right ascension
20h 24m 13s
True Declination
0° 00' 00"
Sunlit
Object was in full shadow at epoch
Visualization orbit readout
Latitude
Unknown
Longitude
Unknown
Altitude
Unknown
Speed
Unknown
Apparent Right ascension
Unknown
Apparent Declination
Unknown
Sunlit
N/A
Visualization observer readout
Local Sidereal Time
08:23:16
Azimuth
Unknown
Elevation
Unknown
Doppler factor
Unknown
Orbital elements
Apogee altitude
534.424 km
Perigee altitude
529.781 km
Semi-major axis
6,910.239 km
Eccentricity
0.00034
Inclination
97.4153°
RAAN
306.0556°
Arg. of periapsis
129.0609°
True anomaly
231.06206°
Mean anomaly
231.092°
Eccentric anomaly
231.07703°
Mean motion
3.77836 °/min
Orbital period
95.28 mins
BSTAR
0.00024718
Loading maneuver chart data...
Computing Atmospheric mass density...
Loading historical data...
Loading historical data...
Loading historical data...
Loading historical data...
Loading historical data...
Loading historical data...
Loading historical data...

Documentation

Showing up to 5 results
|